Weather History for Naples, FL

Change the Weather History Date:

Wednesday, January 25, 2012

  Actual Average Record
Temperature  
Mean Temperature 73 °F 64 °F  
Max Temperature 83 °F 75 °F 88 °F (1974)
Min Temperature 62 °F 54 °F 37 °F (2000)
Degree Days  
Heating Degree Days 0 3  
Month to date heating degree days 72 88  
Since 1 July heating degree days 97 166  
Cooling Degree Days 8 3  
Month to date cooling degree days 49 75  
Year to date cooling degree days 49 75  
Growing Degree Days 22 (Base 50)    
Moisture  
Dew Point 62 °F    
Average Humidity 71    
Maximum Humidity 93    
Minimum Humidity 49    
Precipitation  
Precipitation 0.00 in 0.07 in 3.05 in (1993)
Month to date precipitation 0.02 1.41  
Year to date precipitation 0.02 1.41  
Snow  
Snow 0.00 in - - ()
Month to date snowfall 0.0  
Since 1 July snowfall 0.0  
Snow Depth 0.00 in    
Sea Level Pressure  
Sea Level Pressure 30.11 in    
Wind  
Wind Speed 8 mph (East)    
Max Wind Speed 18 mph    
Max Gust Speed 25 mph    
Visibility 10 miles    
Events      
T = Trace of Precipitation, MM = Missing Value Source: NWS Daily Summary

Daily Weather History Graph

Daily Weather History Graph

Search for Another Location

Airport:

Trip Planner

Search our weather history database for the weather conditions in past years. The results will help you decide how hot, cold, wet, or windy it might be!

Date:

Astronomy

Jan. 25, 2012 Rise Set
Actual Time 7:14 AM EST 6:04 PM EST
Civil Twilight 6:49 AM EST 6:29 PM EST
Nautical Twilight 6:21 AM EST 6:56 PM EST
Astronomical Twilight 5:54 AM EST 7:24 PM EST
Moon 8:32 AM EST (1/25) 8:34 PM EST (1/25)
Length of Visible Light 11h 39m
Length of Day
10h 50m
Waxing Crescent, 6% of the Moon is Illuminated
Jan 25
Waxing Crescent
Jan 30
First Quarter
Feb 7
Full
Feb 14
Last Quarter
Feb 21
New

Hourly Weather History & Observations

Time (EST) Temp. Heat Index Dew Point Humidity Pressure Visibility Wind Dir Wind Speed Gust Speed Precip Events Conditions
12:53 AM 66.0 °F - 62.1 °F 87% 30.15 in 10.0 mi NE 3.5 mph - N/A   Clear
1:53 AM 64.0 °F - 61.0 °F 90% 30.14 in 10.0 mi ENE 4.6 mph - N/A   Clear
2:53 AM 64.0 °F - 61.0 °F 90% 30.13 in 10.0 mi ENE 5.8 mph - N/A   Clear
3:53 AM 63.0 °F - 61.0 °F 93% 30.13 in 9.0 mi ENE 5.8 mph - N/A   Clear
4:53 AM 62.1 °F - 61.0 °F 96% 30.12 in 8.0 mi ENE 6.9 mph - N/A   Clear
5:53 AM 63.0 °F - 61.0 °F 93% 30.13 in 8.0 mi ENE 5.8 mph - N/A   Clear
6:53 AM 64.0 °F - 62.1 °F 93% 30.14 in 9.0 mi ENE 6.9 mph - N/A   Clear
7:53 AM 64.9 °F - 63.0 °F 93% 30.15 in 9.0 mi East 6.9 mph - N/A   Clear
8:53 AM 70.0 °F - 64.9 °F 84% 30.16 in 10.0 mi East 10.4 mph - N/A   Clear
9:53 AM 75.0 °F - 66.0 °F 73% 30.16 in 10.0 mi East 13.8 mph - N/A   Clear
10:53 AM 78.1 °F - 63.0 °F 60% 30.16 in 10.0 mi East 15.0 mph - N/A   Scattered Clouds
11:53 AM 81.0 °F 81.9 °F 62.1 °F 52% 30.14 in 10.0 mi East 13.8 mph 21.9 mph N/A   Mostly Cloudy
12:53 PM 81.0 °F 81.7 °F 61.0 °F 50% 30.11 in 10.0 mi ESE 8.1 mph - N/A   Scattered Clouds
1:53 PM 80.6 °F 81.5 °F 60.8 °F 51% 30.08 in 10.0 mi SE 11.5 mph - N/A   Scattered Clouds
2:53 PM 81.0 °F 81.3 °F 59.0 °F 47% 30.07 in 10.0 mi SE 11.5 mph - N/A   Mostly Cloudy
3:53 PM 77.0 °F - 64.0 °F 64% 30.07 in 10.0 mi SW 8.1 mph - N/A   Mostly Cloudy
4:53 PM 80.6 °F 81.8 °F 62.6 °F 54% 30.07 in 10.0 mi SSW 4.6 mph - N/A   Mostly Cloudy
5:53 PM 78.1 °F - 62.1 °F 58% 30.08 in 10.0 mi SSE 8.1 mph - N/A   Mostly Cloudy
6:53 PM 75.2 °F - 62.6 °F 65% 30.09 in 10.0 mi SSE 4.6 mph - N/A   Mostly Cloudy
7:53 PM 73.0 °F - 61.0 °F 66% 30.09 in 10.0 mi ESE 6.9 mph - N/A   Scattered Clouds
8:53 PM 71.6 °F - 62.6 °F 73% 30.10 in 10.0 mi ESE 10.4 mph - N/A   Clear
9:53 PM 71.6 °F - 62.6 °F 73% 30.09 in 10.0 mi ESE 9.2 mph - N/A   Clear
10:53 PM 69.1 °F - 62.1 °F 78% 30.09 in 10.0 mi East 9.2 mph - N/A   Clear
11:53 PM 68.0 °F - 62.1 °F 81% 30.09 in 10.0 mi East 5.8 mph - N/A   Clear